Hourly Data Report for February 07, 2021

TORONTO CITY
ONTARIO
Current Station Operator: ECCC - MSC

43°40'00.000" N
79°24'00.000" W
112.50 m
6158355
71508
XTO

Download Data

Hourly Data (February 2021)
Hourly Data Report for February 7, 2021
TIME
LST
Temp Definition
°C
Dew Point Definition
°C
Rel Hum Definition
%
Precip. Amount Definition
mm

Wind Dir Definition
10's deg

Wind Spd Definition
km/h
Visibility Definition
km
Stn Press Definition
kPa
Hmdx Definition


Wind Chill Definition


Weather Definition


00:00 -6.3 -11.1 69 0.0       100.21     LegendNANA
01:00 -6.1 -11.1 68 0.0       100.17     LegendNANA
02:00 -6.3 -11.0 69 0.0       100.11     LegendNANA
03:00 -6.4 -11.2 69 0.0       100.11     LegendNANA
04:00 -6.1 -11.7 65 0.0       100.02     LegendNANA
05:00 -6.4 -10.9 70 0.0       100.03     LegendNANA
06:00 -7.0 -9.2 85 0.4       100.01     LegendNANA
07:00 -7.2 -9.5 84 0.3       100.01     LegendNANA
08:00 -7.2 -10.4 78 0.1       100.00     LegendNANA
09:00 -7.6 -11.8 71 0.0       100.05     LegendNANA
10:00 -6.2 -11.7 65 0.0       100.08     LegendNANA
11:00 -5.7 -12.5 59 0.0       100.12     LegendNANA
12:00 -6.5 -14.0 55 0.0       100.15     LegendNANA
13:00 -6.7 -16.3 47 0.0       100.17     LegendNANA
14:00 -6.8 -16.7 45 0.0       100.17     LegendNANA
15:00 -7.3 -17.0 46 0.0       100.23     LegendNANA
16:00 -8.2 -17.7 46 0.0       100.33     LegendNANA
17:00 -9.0 -17.5 50 0.0       100.44     LegendNANA
18:00 -9.9 -18.2 50 0.0       100.56     LegendNANA
19:00 -10.5 -17.8 55 0.0       100.66     LegendNANA
20:00 -10.9 -17.7 57 0.0       100.75     LegendNANA
21:00 -11.2 -17.5 60 0.0       100.79     LegendNANA
22:00 -11.4 -17.1 63 0.0       100.85     LegendNANA
23:00 -11.5 -17.0 64 0.0       100.92     LegendNANA

Notes on Data Quality.

Legend

  • E = Estimated
  • M = Missing
  • NA = Not Available*
  • [empty] = Indicates an unobserved value
Date modified: